[[{"header":{"parameterUnit":"m.s-1","parameterCategory":1,"la1":30.2992,"la2":30.254,"lo1":-89.0895,"lo2":-89.0443,"dy":0.0025,"dx":0.0025,"nx":19,"ny":19,"refTime":"2026-04-29T03:00:00:Z","depth":0,"parameterNumber":2,"parameterNumberName":"U-component_of_WINDS"},"data":[0,0,0,0.6104,0.6106,0.6162,0.6162,0.6256,0.6257,0,0,0,0,0,0,0,0,0,0,0,0.6099,0.61,0.6104,0.6106,0.6162,0.6162,0.6255,0.6257,0,0,0,0,0,0,0,0,0,0,0,0.6098,0.6099,0.6101,0.6106,0.6162,0.6162,0.6255,0.6206,0,0,0,0,0,0,0,0,0,0,0.6147,0.6153,0.6099,0.6101,0.6107,0.6162,0.6162,0.6203,0.6209,0.6238,0,0.6266,0,0.6263,0.6264,0.6264,0,0,0,0.6099,0.6148,0.6153,0.6101,0.6107,0.6162,0.6135,0.6206,0.6213,0.6246,0.6267,0.627,0.6264,0.6265,0.6265,0.6456,0.6458,0,0,0.6095,0.6116,0.6148,0.6157,0.6148,0.6133,0.6137,0.621,0.6235,0.6268,0.6272,0.6266,0.6265,0.6266,0.6455,0.6457,0,0,0,0.6091,0.6114,0.6116,0.6154,0.6163,0.6135,0.6139,0.6232,0.623,0.6273,0.6267,0.6266,0.6267,0.6454,0.6456,0.6537,0,0,0,0.6089,0.6111,0.6115,0.6128,0.6162,0.6197,0.616,0.6225,0.6233,0.6266,0.6266,0.6268,0.6452,0.6455,0.6532,0.6574,0,0,0,0.6091,0.6111,0.6123,0.6129,0.6154,0.6196,0.6199,0.6227,0.623,0.6264,0.6269,0.6451,0.6454,0.6527,0.6566,0.6631,0,0,0,0.61,0.6196,0.6125,0.6229,0.6154,0.6244,0.6198,0.6265,0.6304,0.6267,0.6453,0.6456,0.6526,0.6561,0.6626,0.6691,0.6719,0,0,0.6233,0.6213,0.6273,0.621,0.6319,0.6234,0.6355,0.6373,0.6359,0.6425,0.6429,0.6534,0.6566,0.663,0.6865,0.6887,0,0,0,0.6322,0.6365,0.6389,0.6426,0.644,0.6456,0.6452,0.6458,0.6513,0.6396,0.6573,0.6591,0.6628,0.6658,0.6678,0.6709,0.647,0.6469,0.6469,0.6542,0.6515,0.6612,0.6593,0.6629,0.6622,0.665,0.6658,0.6623,0.6665,0.6686,0.6831,0.6867,0.6881,0.6914,0.6715,0.6715,0.6716,0.6716,0.6735,0.6794,0.6741,0.6817,0.6788,0.6852,0.6849,0.6822,0.6878,0.6813,0.6845,0.6779,0.6907,0.6934,0.6722,0.6721,0.672,0.6719,0.6719,0.6879,0.6902,0.6906,0.6955,0.6996,0.6972,0.7028,0.7,0.6975,0.7005,0.7025,0.7024,0.7021,0.7016,0.7016,0.7017,0.7017,0.7017,0.7018,0.7028,0.7029,0.7079,0.7099,0.7118,0.714,0.7132,0.7151,0.7164,0.714,0.714,0.7102,0.6922,0.6879,0.7026,0.7024,0.7023,0.7022,0.7022,0.724,0.7187,0.7264,0.7283,0.7304,0.7346,0.7308,0.7348,0.7359,0.7388,0.7341,0.7211,0.719,0.7175,0.714,0.7344,0.7344,0.7344,0.7344,0.7364,0.7348,0.742,0.7452,0.748,0.7452,0.7541,0.7535,0.7521,0.7526,0.7492,0.7441,0.7426,0.7414,0.7394,0.736,0.7617,0.7617,0.7617,0.7494,0.7479,0.7561,0.7543,0.7556,0.7569,0.7652,0.7692,0.7665,0.7628,0.7531,0.7519,0.7437,0.7411,0.7377,0.7345,0.7283,0,0]},{"header":{"parameterUnit":"m.s-1","parameterCategory":1,"la1":30.2992,"la2":30.254,"lo1":-89.0895,"lo2":-89.0443,"dy":0.0025,"dx":0.0025,"nx":19,"ny":19,"refTime":"2026-04-29T03:00:00:Z","depth":0,"parameterNumber":3,"parameterNumberName":"V-component_of_WINDS"},"data":[0,0,0,6.443,6.4435,6.4649,6.465,6.4913,6.4916,0,0,0,0,0,0,0,0,0,0,0,6.4367,6.4368,6.443,6.4435,6.4649,6.465,6.4913,6.4916,0,0,0,0,0,0,0,0,0,0,0,6.4366,6.4368,6.437,6.4436,6.4649,6.465,6.4912,6.4753,0,0,0,0,0,0,0,0,0,0,6.4547,6.4489,6.4367,6.437,6.4437,6.4648,6.465,6.4746,6.4763,6.4814,0,6.4864,0,6.4895,6.4933,6.4934,0,0,0,6.4434,6.4474,6.4533,6.4371,6.4439,6.4648,6.4552,6.4755,6.4775,6.4837,6.4868,6.4878,6.4899,6.4935,6.4936,6.5247,6.5248,0,0,6.4422,6.4403,6.4519,6.4546,6.4519,6.4545,6.4559,6.4767,6.4797,6.4869,6.4884,6.4903,6.4937,6.4939,6.5245,6.5247,0,0,0,6.4389,6.4395,6.4449,6.4535,6.4575,6.4551,6.4567,6.4788,6.4808,6.4887,6.4906,6.4938,6.4941,6.5244,6.5246,6.5304,0,0,0,6.4382,6.4376,6.4444,6.4434,6.4571,6.4685,6.4583,6.4793,6.4817,6.4905,6.4938,6.4944,6.5242,6.5245,6.5299,6.5333,0,0,0,6.4353,6.4372,6.4404,6.4433,6.4525,6.4682,6.4714,6.4799,6.4829,6.4934,6.4945,6.5241,6.5245,6.5294,6.5326,6.5409,0,0,0,6.4314,6.445,6.4405,6.4563,6.4523,6.4719,6.4713,6.4858,6.4955,6.494,6.5243,6.5246,6.5293,6.5321,6.5404,6.5476,6.5504,0,0,6.4474,6.4468,6.4563,6.4529,6.4729,6.4687,6.4894,6.4998,6.5022,6.5169,6.5177,6.5301,6.5325,6.5408,6.5673,6.5696,0,0,0,6.4607,6.4675,6.4732,6.4826,6.4913,6.4988,6.5064,6.5102,6.5229,6.5096,6.5354,6.537,6.5419,6.5453,6.5473,6.5515,6.5262,6.5261,6.5261,6.4804,6.4833,6.4991,6.5046,6.5136,6.5214,6.5289,6.5353,6.5352,6.5412,6.5456,6.5614,6.5654,6.5669,6.5713,6.5497,6.5497,6.5497,6.5497,6.504,6.514,6.5139,6.5293,6.532,6.5447,6.5526,6.5521,6.564,6.5583,6.5628,6.5562,6.5693,6.5732,6.5502,6.5501,6.5501,6.55,6.55,6.5171,6.5224,6.5272,6.5412,6.5516,6.5564,6.568,6.57,6.5718,6.5763,6.581,6.5809,6.5809,6.5785,6.5785,6.5786,6.5786,6.5787,6.5787,6.5288,6.534,6.5439,6.5543,6.5606,6.5692,6.5771,6.5832,6.5904,6.5909,6.5909,6.59,6.5702,6.565,6.5796,6.5794,6.5793,6.5792,6.5791,6.5513,6.5466,6.5618,6.5682,6.5805,6.5906,6.5931,6.6054,6.6107,6.6162,6.6145,6.5996,6.5989,6.5974,6.5931,6.6141,6.6141,6.6141,6.6141,6.5623,6.5623,6.5783,6.5884,6.5984,6.6023,6.6188,6.6251,6.6307,6.634,6.6313,6.6259,6.6243,6.6246,6.6225,6.6185,6.6454,6.6454,6.6455,6.5762,6.5774,6.5913,6.5973,6.6071,6.6153,6.6309,6.642,6.6473,6.6468,6.6366,6.6353,6.6266,6.6237,6.6226,6.6193,6.6121,0,0]}]]